Index of /20260507/WXO-DD/model_gdps/15km/00/003
Name Last modified Size Description
Parent Directory -
20260507T00Z_MSC_GDPS_AbsoluteVorticity_IsbL-0200_LatLon0.15_PT003H.grib2 2026-05-07 03:59 1.2M
20260507T00Z_MSC_GDPS_AbsoluteVorticity_IsbL-0250_LatLon0.15_PT003H.grib2 2026-05-07 03:59 1.3M
20260507T00Z_MSC_GDPS_AbsoluteVorticity_IsbL-0500_LatLon0.15_PT003H.grib2 2026-05-07 03:59 1.4M
20260507T00Z_MSC_GDPS_AbsoluteVorticity_IsbL-0700_LatLon0.15_PT003H.grib2 2026-05-07 03:59 1.3M
20260507T00Z_MSC_GDPS_AbsoluteVorticity_IsbL-0850_LatLon0.15_PT003H.grib2 2026-05-07 03:59 1.6M
20260507T00Z_MSC_GDPS_AirTemp_AGL-120m_LatLon0.15_PT003H.grib2 2026-05-07 03:59 895K
20260507T00Z_MSC_GDPS_AirTemp_AGL-2m_LatLon0.15_PT003H.grib2 2026-05-07 03:59 1.2M
20260507T00Z_MSC_GDPS_AirTemp_AGL-40m_LatLon0.15_PT003H.grib2 2026-05-07 03:59 915K
20260507T00Z_MSC_GDPS_AirTemp_AGL-80m_LatLon0.15_PT003H.grib2 2026-05-07 03:59 904K
20260507T00Z_MSC_GDPS_AirTemp_IsbL-0001_LatLon0.15_PT003H.grib2 2026-05-07 03:59 517K
20260507T00Z_MSC_GDPS_AirTemp_IsbL-0005_LatLon0.15_PT003H.grib2 2026-05-07 03:59 697K
20260507T00Z_MSC_GDPS_AirTemp_IsbL-0010_LatLon0.15_PT003H.grib2 2026-05-07 03:59 704K
20260507T00Z_MSC_GDPS_AirTemp_IsbL-0020_LatLon0.15_PT003H.grib2 2026-05-07 03:59 789K
20260507T00Z_MSC_GDPS_AirTemp_IsbL-0030_LatLon0.15_PT003H.grib2 2026-05-07 03:59 837K
20260507T00Z_MSC_GDPS_AirTemp_IsbL-0050_LatLon0.15_PT003H.grib2 2026-05-07 03:59 804K
20260507T00Z_MSC_GDPS_AirTemp_IsbL-0100_LatLon0.15_PT003H.grib2 2026-05-07 03:59 940K
20260507T00Z_MSC_GDPS_AirTemp_IsbL-0150_LatLon0.15_PT003H.grib2 2026-05-07 03:59 1.0M
20260507T00Z_MSC_GDPS_AirTemp_IsbL-0175_LatLon0.15_PT003H.grib2 2026-05-07 03:59 951K
20260507T00Z_MSC_GDPS_AirTemp_IsbL-0200_LatLon0.15_PT003H.grib2 2026-05-07 03:59 965K
20260507T00Z_MSC_GDPS_AirTemp_IsbL-0225_LatLon0.15_PT003H.grib2 2026-05-07 03:59 1.0M
20260507T00Z_MSC_GDPS_AirTemp_IsbL-0250_LatLon0.15_PT003H.grib2 2026-05-07 03:59 1.0M
20260507T00Z_MSC_GDPS_AirTemp_IsbL-0275_LatLon0.15_PT003H.grib2 2026-05-07 03:59 1.0M
20260507T00Z_MSC_GDPS_AirTemp_IsbL-0300_LatLon0.15_PT003H.grib2 2026-05-07 03:59 941K
20260507T00Z_MSC_GDPS_AirTemp_IsbL-0350_LatLon0.15_PT003H.grib2 2026-05-07 03:59 928K
20260507T00Z_MSC_GDPS_AirTemp_IsbL-0400_LatLon0.15_PT003H.grib2 2026-05-07 03:59 943K
20260507T00Z_MSC_GDPS_AirTemp_IsbL-0450_LatLon0.15_PT003H.grib2 2026-05-07 03:59 965K
20260507T00Z_MSC_GDPS_AirTemp_IsbL-0500_LatLon0.15_PT003H.grib2 2026-05-07 03:59 1.0M
20260507T00Z_MSC_GDPS_AirTemp_IsbL-0550_LatLon0.15_PT003H.grib2 2026-05-07 03:59 798K
20260507T00Z_MSC_GDPS_AirTemp_IsbL-0600_LatLon0.15_PT003H.grib2 2026-05-07 03:59 888K
20260507T00Z_MSC_GDPS_AirTemp_IsbL-0650_LatLon0.15_PT003H.grib2 2026-05-07 03:59 918K
20260507T00Z_MSC_GDPS_AirTemp_IsbL-0700_LatLon0.15_PT003H.grib2 2026-05-07 03:59 948K
20260507T00Z_MSC_GDPS_AirTemp_IsbL-0750_LatLon0.15_PT003H.grib2 2026-05-07 03:59 1.0M
20260507T00Z_MSC_GDPS_AirTemp_IsbL-0800_LatLon0.15_PT003H.grib2 2026-05-07 03:59 1.1M
20260507T00Z_MSC_GDPS_AirTemp_IsbL-0850_LatLon0.15_PT003H.grib2 2026-05-07 03:59 1.1M
20260507T00Z_MSC_GDPS_AirTemp_IsbL-0875_LatLon0.15_PT003H.grib2 2026-05-07 03:59 1.2M
20260507T00Z_MSC_GDPS_AirTemp_IsbL-0900_LatLon0.15_PT003H.grib2 2026-05-07 03:59 1.1M
20260507T00Z_MSC_GDPS_AirTemp_IsbL-0925_LatLon0.15_PT003H.grib2 2026-05-07 03:59 1.1M
20260507T00Z_MSC_GDPS_AirTemp_IsbL-0950_LatLon0.15_PT003H.grib2 2026-05-07 03:59 1.1M
20260507T00Z_MSC_GDPS_AirTemp_IsbL-0970_LatLon0.15_PT003H.grib2 2026-05-07 03:59 1.1M
20260507T00Z_MSC_GDPS_AirTemp_IsbL-0985_LatLon0.15_PT003H.grib2 2026-05-07 03:59 1.1M
20260507T00Z_MSC_GDPS_AirTemp_IsbL-1000_LatLon0.15_PT003H.grib2 2026-05-07 03:59 1.1M
20260507T00Z_MSC_GDPS_AirTemp_IsbL-1015_LatLon0.15_PT003H.grib2 2026-05-07 03:59 1.1M
20260507T00Z_MSC_GDPS_Albedo_Sfc_LatLon0.15_PT003H.grib2 2026-05-07 03:59 243K
20260507T00Z_MSC_GDPS_CAPE_Sfc_LatLon0.15_PT003H.grib2 2026-05-07 03:59 4.0M
20260507T00Z_MSC_GDPS_CIN_Sfc_LatLon0.15_PT003H.grib2 2026-05-07 03:59 2.8M
20260507T00Z_MSC_GDPS_CloudWater_EAtm_LatLon0.15_PT003H.grib2 2026-05-07 03:59 531K
20260507T00Z_MSC_GDPS_ConvectivePrecip-Accum_Sfc_LatLon0.15_PT003H.grib2 2026-05-07 03:59 1.3M
20260507T00Z_MSC_GDPS_DewPointDepression_AGL-2m_LatLon0.15_PT003H.grib2 2026-05-07 03:59 765K
20260507T00Z_MSC_GDPS_DewPointDepression_IsbL-0010_LatLon0.15_PT003H.grib2 2026-05-07 03:59 80K
20260507T00Z_MSC_GDPS_DewPointDepression_IsbL-0020_LatLon0.15_PT003H.grib2 2026-05-07 03:59 74K
20260507T00Z_MSC_GDPS_DewPointDepression_IsbL-0030_LatLon0.15_PT003H.grib2 2026-05-07 03:59 89K
20260507T00Z_MSC_GDPS_DewPointDepression_IsbL-0050_LatLon0.15_PT003H.grib2 2026-05-07 03:59 380K
20260507T00Z_MSC_GDPS_DewPointDepression_IsbL-0100_LatLon0.15_PT003H.grib2 2026-05-07 03:59 400K
20260507T00Z_MSC_GDPS_DewPointDepression_IsbL-0150_LatLon0.15_PT003H.grib2 2026-05-07 03:59 499K
20260507T00Z_MSC_GDPS_DewPointDepression_IsbL-0175_LatLon0.15_PT003H.grib2 2026-05-07 03:59 599K
20260507T00Z_MSC_GDPS_DewPointDepression_IsbL-0200_LatLon0.15_PT003H.grib2 2026-05-07 03:59 707K
20260507T00Z_MSC_GDPS_DewPointDepression_IsbL-0225_LatLon0.15_PT003H.grib2 2026-05-07 03:59 787K
20260507T00Z_MSC_GDPS_DewPointDepression_IsbL-0250_LatLon0.15_PT003H.grib2 2026-05-07 03:59 872K
20260507T00Z_MSC_GDPS_DewPointDepression_IsbL-0275_LatLon0.15_PT003H.grib2 2026-05-07 03:59 890K
20260507T00Z_MSC_GDPS_DewPointDepression_IsbL-0300_LatLon0.15_PT003H.grib2 2026-05-07 03:59 931K
20260507T00Z_MSC_GDPS_DewPointDepression_IsbL-0350_LatLon0.15_PT003H.grib2 2026-05-07 03:59 954K
20260507T00Z_MSC_GDPS_DewPointDepression_IsbL-0400_LatLon0.15_PT003H.grib2 2026-05-07 03:59 1.0M
20260507T00Z_MSC_GDPS_DewPointDepression_IsbL-0450_LatLon0.15_PT003H.grib2 2026-05-07 03:59 1.0M
20260507T00Z_MSC_GDPS_DewPointDepression_IsbL-0500_LatLon0.15_PT003H.grib2 2026-05-07 03:59 1.0M
20260507T00Z_MSC_GDPS_DewPointDepression_IsbL-0550_LatLon0.15_PT003H.grib2 2026-05-07 03:59 1.0M
20260507T00Z_MSC_GDPS_DewPointDepression_IsbL-0600_LatLon0.15_PT003H.grib2 2026-05-07 03:59 1.0M
20260507T00Z_MSC_GDPS_DewPointDepression_IsbL-0650_LatLon0.15_PT003H.grib2 2026-05-07 03:59 1.0M
20260507T00Z_MSC_GDPS_DewPointDepression_IsbL-0700_LatLon0.15_PT003H.grib2 2026-05-07 03:59 1.1M
20260507T00Z_MSC_GDPS_DewPointDepression_IsbL-0750_LatLon0.15_PT003H.grib2 2026-05-07 03:59 1.1M
20260507T00Z_MSC_GDPS_DewPointDepression_IsbL-0800_LatLon0.15_PT003H.grib2 2026-05-07 03:59 1.1M
20260507T00Z_MSC_GDPS_DewPointDepression_IsbL-0850_LatLon0.15_PT003H.grib2 2026-05-07 03:59 1.2M
20260507T00Z_MSC_GDPS_DewPointDepression_IsbL-0875_LatLon0.15_PT003H.grib2 2026-05-07 03:59 1.1M
20260507T00Z_MSC_GDPS_DewPointDepression_IsbL-0900_LatLon0.15_PT003H.grib2 2026-05-07 03:59 1.1M
20260507T00Z_MSC_GDPS_DewPointDepression_IsbL-0925_LatLon0.15_PT003H.grib2 2026-05-07 03:59 1.0M
20260507T00Z_MSC_GDPS_DewPointDepression_IsbL-0950_LatLon0.15_PT003H.grib2 2026-05-07 03:59 1.0M
20260507T00Z_MSC_GDPS_DewPointDepression_IsbL-0970_LatLon0.15_PT003H.grib2 2026-05-07 03:59 1.0M
20260507T00Z_MSC_GDPS_DewPointDepression_IsbL-0985_LatLon0.15_PT003H.grib2 2026-05-07 03:59 1.0M
20260507T00Z_MSC_GDPS_DewPointDepression_IsbL-1000_LatLon0.15_PT003H.grib2 2026-05-07 03:59 1.0M
20260507T00Z_MSC_GDPS_DewPointDepression_IsbL-1015_LatLon0.15_PT003H.grib2 2026-05-07 03:59 916K
20260507T00Z_MSC_GDPS_DewPoint_AGL-2m_LatLon0.15_PT003H.grib2 2026-05-07 03:59 599K
20260507T00Z_MSC_GDPS_DownwardLongwaveRadiationFlux-Accum_Sfc_LatLon0.15_PT003H.grib2 2026-05-07 03:59 1.0M
20260507T00Z_MSC_GDPS_DownwardShortwaveRadiationFlux-Accum_NTAtm_LatLon0.15_PT003H.grib2 2026-05-07 03:59 212K
20260507T00Z_MSC_GDPS_DownwardShortwaveRadiationFlux-Accum_Sfc_LatLon0.15_PT003H.grib2 2026-05-07 03:59 587K
20260507T00Z_MSC_GDPS_FreezingRain-Accum1h_Sfc_LatLon0.15_PT003H.grib2 2026-05-07 03:59 25K
20260507T00Z_MSC_GDPS_FreezingRain-Accum3h_Sfc_LatLon0.15_PT003H.grib2 2026-05-07 03:59 37K
20260507T00Z_MSC_GDPS_FreezingRain-Accum_Sfc_LatLon0.15_PT003H.grib2 2026-05-07 03:59 48K
20260507T00Z_MSC_GDPS_GeopotentialHeight_IsbL-0001_LatLon0.15_PT003H.grib2 2026-05-07 03:59 438K
20260507T00Z_MSC_GDPS_GeopotentialHeight_IsbL-0005_LatLon0.15_PT003H.grib2 2026-05-07 03:59 488K
20260507T00Z_MSC_GDPS_GeopotentialHeight_IsbL-0010_LatLon0.15_PT003H.grib2 2026-05-07 03:59 475K
20260507T00Z_MSC_GDPS_GeopotentialHeight_IsbL-0020_LatLon0.15_PT003H.grib2 2026-05-07 03:59 414K
20260507T00Z_MSC_GDPS_GeopotentialHeight_IsbL-0030_LatLon0.15_PT003H.grib2 2026-05-07 03:59 417K
20260507T00Z_MSC_GDPS_GeopotentialHeight_IsbL-0050_LatLon0.15_PT003H.grib2 2026-05-07 03:59 568K
20260507T00Z_MSC_GDPS_GeopotentialHeight_IsbL-0100_LatLon0.15_PT003H.grib2 2026-05-07 03:59 600K
20260507T00Z_MSC_GDPS_GeopotentialHeight_IsbL-0150_LatLon0.15_PT003H.grib2 2026-05-07 03:59 621K
20260507T00Z_MSC_GDPS_GeopotentialHeight_IsbL-0175_LatLon0.15_PT003H.grib2 2026-05-07 03:59 626K
20260507T00Z_MSC_GDPS_GeopotentialHeight_IsbL-0200_LatLon0.15_PT003H.grib2 2026-05-07 03:59 630K
20260507T00Z_MSC_GDPS_GeopotentialHeight_IsbL-0225_LatLon0.15_PT003H.grib2 2026-05-07 03:59 633K
20260507T00Z_MSC_GDPS_GeopotentialHeight_IsbL-0250_LatLon0.15_PT003H.grib2 2026-05-07 03:59 636K
20260507T00Z_MSC_GDPS_GeopotentialHeight_IsbL-0275_LatLon0.15_PT003H.grib2 2026-05-07 03:59 635K
20260507T00Z_MSC_GDPS_GeopotentialHeight_IsbL-0300_LatLon0.15_PT003H.grib2 2026-05-07 03:59 635K
20260507T00Z_MSC_GDPS_GeopotentialHeight_IsbL-0350_LatLon0.15_PT003H.grib2 2026-05-07 03:59 624K
20260507T00Z_MSC_GDPS_GeopotentialHeight_IsbL-0400_LatLon0.15_PT003H.grib2 2026-05-07 03:59 618K
20260507T00Z_MSC_GDPS_GeopotentialHeight_IsbL-0450_LatLon0.15_PT003H.grib2 2026-05-07 03:59 539K
20260507T00Z_MSC_GDPS_GeopotentialHeight_IsbL-0500_LatLon0.15_PT003H.grib2 2026-05-07 03:59 531K
20260507T00Z_MSC_GDPS_GeopotentialHeight_IsbL-0550_LatLon0.15_PT003H.grib2 2026-05-07 03:59 525K
20260507T00Z_MSC_GDPS_GeopotentialHeight_IsbL-0600_LatLon0.15_PT003H.grib2 2026-05-07 03:59 689K
20260507T00Z_MSC_GDPS_GeopotentialHeight_IsbL-0650_LatLon0.15_PT003H.grib2 2026-05-07 03:59 688K
20260507T00Z_MSC_GDPS_GeopotentialHeight_IsbL-0700_LatLon0.15_PT003H.grib2 2026-05-07 03:59 690K
20260507T00Z_MSC_GDPS_GeopotentialHeight_IsbL-0750_LatLon0.15_PT003H.grib2 2026-05-07 03:59 690K
20260507T00Z_MSC_GDPS_GeopotentialHeight_IsbL-0800_LatLon0.15_PT003H.grib2 2026-05-07 03:59 704K
20260507T00Z_MSC_GDPS_GeopotentialHeight_IsbL-0850_LatLon0.15_PT003H.grib2 2026-05-07 03:59 710K
20260507T00Z_MSC_GDPS_GeopotentialHeight_IsbL-0875_LatLon0.15_PT003H.grib2 2026-05-07 03:59 718K
20260507T00Z_MSC_GDPS_GeopotentialHeight_IsbL-0900_LatLon0.15_PT003H.grib2 2026-05-07 03:59 724K
20260507T00Z_MSC_GDPS_GeopotentialHeight_IsbL-0925_LatLon0.15_PT003H.grib2 2026-05-07 03:59 727K
20260507T00Z_MSC_GDPS_GeopotentialHeight_IsbL-0950_LatLon0.15_PT003H.grib2 2026-05-07 03:59 735K
20260507T00Z_MSC_GDPS_GeopotentialHeight_IsbL-0970_LatLon0.15_PT003H.grib2 2026-05-07 03:59 747K
20260507T00Z_MSC_GDPS_GeopotentialHeight_IsbL-0985_LatLon0.15_PT003H.grib2 2026-05-07 03:59 761K
20260507T00Z_MSC_GDPS_GeopotentialHeight_IsbL-1000_LatLon0.15_PT003H.grib2 2026-05-07 03:59 780K
20260507T00Z_MSC_GDPS_GeopotentialHeight_IsbL-1015_LatLon0.15_PT003H.grib2 2026-05-07 03:59 803K
20260507T00Z_MSC_GDPS_Humidex_Sfc_LatLon0.15_PT003H.grib2 2026-05-07 03:59 5.3M
20260507T00Z_MSC_GDPS_IcePellets-Accum1h_Sfc_LatLon0.15_PT003H.grib2 2026-05-07 03:59 4.2K
20260507T00Z_MSC_GDPS_IcePellets-Accum3h_Sfc_LatLon0.15_PT003H.grib2 2026-05-07 03:59 5.4K
20260507T00Z_MSC_GDPS_IcePellets-Accum_Sfc_LatLon0.15_PT003H.grib2 2026-05-07 03:59 6.5K
20260507T00Z_MSC_GDPS_KIndex_Sfc_LatLon0.15_PT003H.grib2 2026-05-07 03:59 6.0M
20260507T00Z_MSC_GDPS_LatentHeatNetFlux_Sfc_LatLon0.15_PT003H.grib2 2026-05-07 03:59 524K
20260507T00Z_MSC_GDPS_LiftedIndex-MU-VT_IsbL-0500_LatLon0.15_PT003H.grib2 2026-05-07 03:59 5.4M
20260507T00Z_MSC_GDPS_NetLongwaveRadiationFlux-Accum_Sfc_LatLon0.15_PT003H.grib2 2026-05-07 03:59 1.2M
20260507T00Z_MSC_GDPS_NetShortwaveRadiationFlux-Accum_Sfc_LatLon0.15_PT003H.grib2 2026-05-07 03:59 548K
20260507T00Z_MSC_GDPS_O3MixingRatio_Sfc_LatLon0.15_PT003H.grib2 2026-05-07 04:54 2.4M
20260507T00Z_MSC_GDPS_O3_EAtm_LatLon0.15_PT003H.grib2 2026-05-07 04:54 2.5M
20260507T00Z_MSC_GDPS_PlanetaryBoundaryLayerHeight_Sfc_LatLon0.15_PT003H.grib2 2026-05-07 03:59 2.4M
20260507T00Z_MSC_GDPS_Precip-Accum1h_Sfc_LatLon0.15_PT003H.grib2 2026-05-07 03:59 3.1M
20260507T00Z_MSC_GDPS_Precip-Accum3h_Sfc_LatLon0.15_PT003H.grib2 2026-05-07 03:59 3.4M
20260507T00Z_MSC_GDPS_Precip-Accum_Sfc_LatLon0.15_PT003H.grib2 2026-05-07 03:59 3.3M
20260507T00Z_MSC_GDPS_PrecipRate_Sfc_LatLon0.15_PT003H.grib2 2026-05-07 03:59 2.9M
20260507T00Z_MSC_GDPS_PrecipType-Instant_Sfc_LatLon0.15_PT003H.grib2 2026-05-07 03:59 1.5M
20260507T00Z_MSC_GDPS_Pressure_MSL_LatLon0.15_PT003H.grib2 2026-05-07 03:59 714K
20260507T00Z_MSC_GDPS_Pressure_PVU-1.5_LatLon0.15_PT003H.grib2 2026-05-07 03:59 5.8M
20260507T00Z_MSC_GDPS_Pressure_PVU-1_LatLon0.15_PT003H.grib2 2026-05-07 03:59 6.0M
20260507T00Z_MSC_GDPS_Pressure_PVU-2_LatLon0.15_PT003H.grib2 2026-05-07 03:59 5.6M
20260507T00Z_MSC_GDPS_Pressure_Sfc_LatLon0.15_PT003H.grib2 2026-05-07 03:59 1.1M
20260507T00Z_MSC_GDPS_RadiativeTemp_Sfc_LatLon0.15_PT003H.grib2 2026-05-07 03:59 652K
20260507T00Z_MSC_GDPS_Rain-Accum1h_Sfc_LatLon0.15_PT003H.grib2 2026-05-07 03:59 1.6M
20260507T00Z_MSC_GDPS_Rain-Accum3h_Sfc_LatLon0.15_PT003H.grib2 2026-05-07 03:59 1.6M
20260507T00Z_MSC_GDPS_Rain-Accum_Sfc_LatLon0.15_PT003H.grib2 2026-05-07 03:59 2.3M
20260507T00Z_MSC_GDPS_RelativeHumidity_AGL-2m_LatLon0.15_PT003H.grib2 2026-05-07 03:59 1.1M
20260507T00Z_MSC_GDPS_RelativeHumidity_IsbL-0010_LatLon0.15_PT003H.grib2 2026-05-07 03:59 158K
20260507T00Z_MSC_GDPS_RelativeHumidity_IsbL-0020_LatLon0.15_PT003H.grib2 2026-05-07 03:59 180K
20260507T00Z_MSC_GDPS_RelativeHumidity_IsbL-0030_LatLon0.15_PT003H.grib2 2026-05-07 03:59 278K
20260507T00Z_MSC_GDPS_RelativeHumidity_IsbL-0050_LatLon0.15_PT003H.grib2 2026-05-07 03:59 337K
20260507T00Z_MSC_GDPS_RelativeHumidity_IsbL-0100_LatLon0.15_PT003H.grib2 2026-05-07 03:59 512K
20260507T00Z_MSC_GDPS_RelativeHumidity_IsbL-0150_LatLon0.15_PT003H.grib2 2026-05-07 03:59 683K
20260507T00Z_MSC_GDPS_RelativeHumidity_IsbL-0175_LatLon0.15_PT003H.grib2 2026-05-07 03:59 800K
20260507T00Z_MSC_GDPS_RelativeHumidity_IsbL-0200_LatLon0.15_PT003H.grib2 2026-05-07 03:59 708K
20260507T00Z_MSC_GDPS_RelativeHumidity_IsbL-0225_LatLon0.15_PT003H.grib2 2026-05-07 03:59 785K
20260507T00Z_MSC_GDPS_RelativeHumidity_IsbL-0250_LatLon0.15_PT003H.grib2 2026-05-07 03:59 854K
20260507T00Z_MSC_GDPS_RelativeHumidity_IsbL-0275_LatLon0.15_PT003H.grib2 2026-05-07 03:59 874K
20260507T00Z_MSC_GDPS_RelativeHumidity_IsbL-0300_LatLon0.15_PT003H.grib2 2026-05-07 03:59 916K
20260507T00Z_MSC_GDPS_RelativeHumidity_IsbL-0350_LatLon0.15_PT003H.grib2 2026-05-07 03:59 939K
20260507T00Z_MSC_GDPS_RelativeHumidity_IsbL-0400_LatLon0.15_PT003H.grib2 2026-05-07 03:59 967K
20260507T00Z_MSC_GDPS_RelativeHumidity_IsbL-0450_LatLon0.15_PT003H.grib2 2026-05-07 03:59 1.0M
20260507T00Z_MSC_GDPS_RelativeHumidity_IsbL-0500_LatLon0.15_PT003H.grib2 2026-05-07 03:59 1.0M
20260507T00Z_MSC_GDPS_RelativeHumidity_IsbL-0550_LatLon0.15_PT003H.grib2 2026-05-07 03:59 1.1M
20260507T00Z_MSC_GDPS_RelativeHumidity_IsbL-0600_LatLon0.15_PT003H.grib2 2026-05-07 03:59 1.1M
20260507T00Z_MSC_GDPS_RelativeHumidity_IsbL-0650_LatLon0.15_PT003H.grib2 2026-05-07 03:59 1.1M
20260507T00Z_MSC_GDPS_RelativeHumidity_IsbL-0700_LatLon0.15_PT003H.grib2 2026-05-07 03:59 1.1M
20260507T00Z_MSC_GDPS_RelativeHumidity_IsbL-0750_LatLon0.15_PT003H.grib2 2026-05-07 03:59 1.2M
20260507T00Z_MSC_GDPS_RelativeHumidity_IsbL-0800_LatLon0.15_PT003H.grib2 2026-05-07 03:59 1.2M
20260507T00Z_MSC_GDPS_RelativeHumidity_IsbL-0850_LatLon0.15_PT003H.grib2 2026-05-07 03:59 1.3M
20260507T00Z_MSC_GDPS_RelativeHumidity_IsbL-0875_LatLon0.15_PT003H.grib2 2026-05-07 03:59 1.3M
20260507T00Z_MSC_GDPS_RelativeHumidity_IsbL-0900_LatLon0.15_PT003H.grib2 2026-05-07 03:59 1.3M
20260507T00Z_MSC_GDPS_RelativeHumidity_IsbL-0925_LatLon0.15_PT003H.grib2 2026-05-07 03:59 1.2M
20260507T00Z_MSC_GDPS_RelativeHumidity_IsbL-0950_LatLon0.15_PT003H.grib2 2026-05-07 03:59 1.2M
20260507T00Z_MSC_GDPS_RelativeHumidity_IsbL-0970_LatLon0.15_PT003H.grib2 2026-05-07 03:59 1.2M
20260507T00Z_MSC_GDPS_RelativeHumidity_IsbL-0985_LatLon0.15_PT003H.grib2 2026-05-07 03:59 1.1M
20260507T00Z_MSC_GDPS_RelativeHumidity_IsbL-1000_LatLon0.15_PT003H.grib2 2026-05-07 03:59 1.1M
20260507T00Z_MSC_GDPS_RelativeHumidity_IsbL-1015_LatLon0.15_PT003H.grib2 2026-05-07 03:59 1.0M
20260507T00Z_MSC_GDPS_RelativeVorticity_IsbL-0200_LatLon0.15_PT003H.grib2 2026-05-07 03:59 1.5M
20260507T00Z_MSC_GDPS_RelativeVorticity_IsbL-0250_LatLon0.15_PT003H.grib2 2026-05-07 03:59 1.6M
20260507T00Z_MSC_GDPS_RelativeVorticity_IsbL-0500_LatLon0.15_PT003H.grib2 2026-05-07 03:59 1.4M
20260507T00Z_MSC_GDPS_RelativeVorticity_IsbL-0700_LatLon0.15_PT003H.grib2 2026-05-07 03:59 1.3M
20260507T00Z_MSC_GDPS_RelativeVorticity_IsbL-0850_LatLon0.15_PT003H.grib2 2026-05-07 03:59 1.6M
20260507T00Z_MSC_GDPS_Runoff-Accum_Sfc_LatLon0.15_PT003H.grib2 2026-05-07 03:59 57K
20260507T00Z_MSC_GDPS_SensibleHeatNetFlux_Sfc_LatLon0.15_PT003H.grib2 2026-05-07 03:59 466K
20260507T00Z_MSC_GDPS_ShowalterIndex_IsbL-0500_LatLon0.15_PT003H.grib2 2026-05-07 03:59 6.2M
20260507T00Z_MSC_GDPS_Snow-Accum1h_Sfc_LatLon0.15_PT003H.grib2 2026-05-07 03:59 1.2M
20260507T00Z_MSC_GDPS_Snow-Accum3h_Sfc_LatLon0.15_PT003H.grib2 2026-05-07 03:59 1.1M
20260507T00Z_MSC_GDPS_Snow-Accum_Sfc_LatLon0.15_PT003H.grib2 2026-05-07 03:59 1.6M
20260507T00Z_MSC_GDPS_SnowDensity_Sfc_LatLon0.15_PT003H.grib2 2026-05-07 03:59 245K
20260507T00Z_MSC_GDPS_SnowDepth_Sfc_LatLon0.15_PT003H.grib2 2026-05-07 03:59 1.7M
20260507T00Z_MSC_GDPS_SoilTemp_DBS-0to10cm_LatLon0.15_PT003H.grib2 2026-05-07 03:59 490K
20260507T00Z_MSC_GDPS_SoilTemp_Sfc_LatLon0.15_PT003H.grib2 2026-05-07 03:59 560K
20260507T00Z_MSC_GDPS_SoilVolumetricIceContent_Sfc_LatLon0.15_PT003H.grib2 2026-05-07 03:59 187K
20260507T00Z_MSC_GDPS_SoilVolumetricWaterContent_DBS-0to10cm_LatLon0.15_PT003H.grib2 2026-05-07 03:59 594K
20260507T00Z_MSC_GDPS_SoilVolumetricWaterContent_DBS-0to1cm_LatLon0.15_PT003H.grib2 2026-05-07 03:59 645K
20260507T00Z_MSC_GDPS_SpecificHumidity_AGL-120m_LatLon0.15_PT003H.grib2 2026-05-07 03:59 1.1M
20260507T00Z_MSC_GDPS_SpecificHumidity_AGL-2m_LatLon0.15_PT003H.grib2 2026-05-07 03:59 1.2M
20260507T00Z_MSC_GDPS_SpecificHumidity_AGL-40m_LatLon0.15_PT003H.grib2 2026-05-07 03:59 1.1M
20260507T00Z_MSC_GDPS_SpecificHumidity_AGL-80m_LatLon0.15_PT003H.grib2 2026-05-07 03:59 1.1M
20260507T00Z_MSC_GDPS_SpecificHumidity_IsbL-0001_LatLon0.15_PT003H.grib2 2026-05-07 03:59 1.1M
20260507T00Z_MSC_GDPS_SpecificHumidity_IsbL-0005_LatLon0.15_PT003H.grib2 2026-05-07 03:59 1.3M
20260507T00Z_MSC_GDPS_SpecificHumidity_IsbL-0010_LatLon0.15_PT003H.grib2 2026-05-07 03:59 1.4M
20260507T00Z_MSC_GDPS_SpecificHumidity_IsbL-0020_LatLon0.15_PT003H.grib2 2026-05-07 03:59 1.4M
20260507T00Z_MSC_GDPS_SpecificHumidity_IsbL-0030_LatLon0.15_PT003H.grib2 2026-05-07 03:59 1.4M
20260507T00Z_MSC_GDPS_SpecificHumidity_IsbL-0050_LatLon0.15_PT003H.grib2 2026-05-07 03:59 1.4M
20260507T00Z_MSC_GDPS_SpecificHumidity_IsbL-0100_LatLon0.15_PT003H.grib2 2026-05-07 03:59 1.4M
20260507T00Z_MSC_GDPS_SpecificHumidity_IsbL-0150_LatLon0.15_PT003H.grib2 2026-05-07 03:59 1.0M
20260507T00Z_MSC_GDPS_SpecificHumidity_IsbL-0175_LatLon0.15_PT003H.grib2 2026-05-07 03:59 1.3M
20260507T00Z_MSC_GDPS_SpecificHumidity_IsbL-0200_LatLon0.15_PT003H.grib2 2026-05-07 03:59 1.3M
20260507T00Z_MSC_GDPS_SpecificHumidity_IsbL-0225_LatLon0.15_PT003H.grib2 2026-05-07 03:59 1.3M
20260507T00Z_MSC_GDPS_SpecificHumidity_IsbL-0250_LatLon0.15_PT003H.grib2 2026-05-07 03:59 1.4M
20260507T00Z_MSC_GDPS_SpecificHumidity_IsbL-0275_LatLon0.15_PT003H.grib2 2026-05-07 03:59 1.3M
20260507T00Z_MSC_GDPS_SpecificHumidity_IsbL-0300_LatLon0.15_PT003H.grib2 2026-05-07 03:59 1.2M
20260507T00Z_MSC_GDPS_SpecificHumidity_IsbL-0350_LatLon0.15_PT003H.grib2 2026-05-07 03:59 1.2M
20260507T00Z_MSC_GDPS_SpecificHumidity_IsbL-0400_LatLon0.15_PT003H.grib2 2026-05-07 03:59 1.5M
20260507T00Z_MSC_GDPS_SpecificHumidity_IsbL-0450_LatLon0.15_PT003H.grib2 2026-05-07 03:59 1.6M
20260507T00Z_MSC_GDPS_SpecificHumidity_IsbL-0500_LatLon0.15_PT003H.grib2 2026-05-07 03:59 1.4M
20260507T00Z_MSC_GDPS_SpecificHumidity_IsbL-0550_LatLon0.15_PT003H.grib2 2026-05-07 03:59 1.6M
20260507T00Z_MSC_GDPS_SpecificHumidity_IsbL-0600_LatLon0.15_PT003H.grib2 2026-05-07 03:59 1.7M
20260507T00Z_MSC_GDPS_SpecificHumidity_IsbL-0650_LatLon0.15_PT003H.grib2 2026-05-07 03:59 1.5M
20260507T00Z_MSC_GDPS_SpecificHumidity_IsbL-0700_LatLon0.15_PT003H.grib2 2026-05-07 03:59 1.6M
20260507T00Z_MSC_GDPS_SpecificHumidity_IsbL-0750_LatLon0.15_PT003H.grib2 2026-05-07 03:59 1.7M
20260507T00Z_MSC_GDPS_SpecificHumidity_IsbL-0800_LatLon0.15_PT003H.grib2 2026-05-07 03:59 1.8M
20260507T00Z_MSC_GDPS_SpecificHumidity_IsbL-0850_LatLon0.15_PT003H.grib2 2026-05-07 03:59 1.9M
20260507T00Z_MSC_GDPS_SpecificHumidity_IsbL-0875_LatLon0.15_PT003H.grib2 2026-05-07 03:59 1.9M
20260507T00Z_MSC_GDPS_SpecificHumidity_IsbL-0900_LatLon0.15_PT003H.grib2 2026-05-07 03:59 1.9M
20260507T00Z_MSC_GDPS_SpecificHumidity_IsbL-0925_LatLon0.15_PT003H.grib2 2026-05-07 03:59 1.9M
20260507T00Z_MSC_GDPS_SpecificHumidity_IsbL-0950_LatLon0.15_PT003H.grib2 2026-05-07 03:59 1.6M
20260507T00Z_MSC_GDPS_SpecificHumidity_IsbL-0970_LatLon0.15_PT003H.grib2 2026-05-07 03:59 1.5M
20260507T00Z_MSC_GDPS_SpecificHumidity_IsbL-0985_LatLon0.15_PT003H.grib2 2026-05-07 03:59 1.5M
20260507T00Z_MSC_GDPS_SpecificHumidity_IsbL-1000_LatLon0.15_PT003H.grib2 2026-05-07 03:59 1.5M
20260507T00Z_MSC_GDPS_SpecificHumidity_IsbL-1015_LatLon0.15_PT003H.grib2 2026-05-07 03:59 1.4M
20260507T00Z_MSC_GDPS_SpecificHumidity_Sfc_LatLon0.15_PT003H.grib2 2026-05-07 03:59 633K
20260507T00Z_MSC_GDPS_Thickness_IsbL-0850to0700_LatLon0.15_PT003H.grib2 2026-05-07 03:59 469K
20260507T00Z_MSC_GDPS_Thickness_IsbL-1000to0500_LatLon0.15_PT003H.grib2 2026-05-07 03:59 366K
20260507T00Z_MSC_GDPS_Thickness_IsbL-1000to0850_LatLon0.15_PT003H.grib2 2026-05-07 03:59 485K
20260507T00Z_MSC_GDPS_TotalCloudCover_Sfc_LatLon0.15_PT003H.grib2 2026-05-07 03:59 828K
20260507T00Z_MSC_GDPS_TotalTotalsIndex_Sfc_LatLon0.15_PT003H.grib2 2026-05-07 03:59 6.1M
20260507T00Z_MSC_GDPS_UVIndex-ClearSky_Sfc_LatLon0.15_PT003H.grib2 2026-05-07 04:54 1.0M
20260507T00Z_MSC_GDPS_UVIndex_Sfc_LatLon0.15_PT003H.grib2 2026-05-07 04:54 1.5M
20260507T00Z_MSC_GDPS_UpwardLongwaveRadiationFlux_NTAtm_LatLon0.15_PT003H.grib2 2026-05-07 03:59 1.0M
20260507T00Z_MSC_GDPS_VerticalVelocity_IsbL-0200_LatLon0.15_PT003H.grib2 2026-05-07 03:59 935K
20260507T00Z_MSC_GDPS_VerticalVelocity_IsbL-0250_LatLon0.15_PT003H.grib2 2026-05-07 03:59 1.1M
20260507T00Z_MSC_GDPS_VerticalVelocity_IsbL-0500_LatLon0.15_PT003H.grib2 2026-05-07 03:59 1.0M
20260507T00Z_MSC_GDPS_VerticalVelocity_IsbL-0600_LatLon0.15_PT003H.grib2 2026-05-07 03:59 1.1M
20260507T00Z_MSC_GDPS_VerticalVelocity_IsbL-0700_LatLon0.15_PT003H.grib2 2026-05-07 03:59 1.1M
20260507T00Z_MSC_GDPS_VerticalVelocity_IsbL-0850_LatLon0.15_PT003H.grib2 2026-05-07 03:59 1.3M
20260507T00Z_MSC_GDPS_WindChill_Sfc_LatLon0.15_PT003H.grib2 2026-05-07 03:59 5.3M
20260507T00Z_MSC_GDPS_WindDir_AGL-10m_LatLon0.15_PT003H.grib2 2026-05-07 03:59 1.3M
20260507T00Z_MSC_GDPS_WindDir_AGL-120m_LatLon0.15_PT003H.grib2 2026-05-07 03:59 1.3M
20260507T00Z_MSC_GDPS_WindDir_AGL-40m_LatLon0.15_PT003H.grib2 2026-05-07 03:59 1.4M
20260507T00Z_MSC_GDPS_WindDir_AGL-80m_LatLon0.15_PT003H.grib2 2026-05-07 03:59 1.3M
20260507T00Z_MSC_GDPS_WindDir_IsbL-0001_LatLon0.15_PT003H.grib2 2026-05-07 03:59 674K
20260507T00Z_MSC_GDPS_WindDir_IsbL-0005_LatLon0.15_PT003H.grib2 2026-05-07 03:59 828K
20260507T00Z_MSC_GDPS_WindDir_IsbL-0010_LatLon0.15_PT003H.grib2 2026-05-07 03:59 845K
20260507T00Z_MSC_GDPS_WindDir_IsbL-0020_LatLon0.15_PT003H.grib2 2026-05-07 03:59 943K
20260507T00Z_MSC_GDPS_WindDir_IsbL-0030_LatLon0.15_PT003H.grib2 2026-05-07 03:59 953K
20260507T00Z_MSC_GDPS_WindDir_IsbL-0050_LatLon0.15_PT003H.grib2 2026-05-07 03:59 953K
20260507T00Z_MSC_GDPS_WindDir_IsbL-0100_LatLon0.15_PT003H.grib2 2026-05-07 03:59 1.0M
20260507T00Z_MSC_GDPS_WindDir_IsbL-0150_LatLon0.15_PT003H.grib2 2026-05-07 03:59 1.0M
20260507T00Z_MSC_GDPS_WindDir_IsbL-0175_LatLon0.15_PT003H.grib2 2026-05-07 03:59 1.0M
20260507T00Z_MSC_GDPS_WindDir_IsbL-0200_LatLon0.15_PT003H.grib2 2026-05-07 03:59 1.1M
20260507T00Z_MSC_GDPS_WindDir_IsbL-0225_LatLon0.15_PT003H.grib2 2026-05-07 03:59 1.1M
20260507T00Z_MSC_GDPS_WindDir_IsbL-0250_LatLon0.15_PT003H.grib2 2026-05-07 03:59 1.1M
20260507T00Z_MSC_GDPS_WindDir_IsbL-0275_LatLon0.15_PT003H.grib2 2026-05-07 03:59 1.2M
20260507T00Z_MSC_GDPS_WindDir_IsbL-0300_LatLon0.15_PT003H.grib2 2026-05-07 03:59 1.2M
20260507T00Z_MSC_GDPS_WindDir_IsbL-0350_LatLon0.15_PT003H.grib2 2026-05-07 03:59 1.2M
20260507T00Z_MSC_GDPS_WindDir_IsbL-0400_LatLon0.15_PT003H.grib2 2026-05-07 03:59 1.3M
20260507T00Z_MSC_GDPS_WindDir_IsbL-0450_LatLon0.15_PT003H.grib2 2026-05-07 03:59 1.3M
20260507T00Z_MSC_GDPS_WindDir_IsbL-0500_LatLon0.15_PT003H.grib2 2026-05-07 03:59 1.4M
20260507T00Z_MSC_GDPS_WindDir_IsbL-0550_LatLon0.15_PT003H.grib2 2026-05-07 03:59 1.4M
20260507T00Z_MSC_GDPS_WindDir_IsbL-0600_LatLon0.15_PT003H.grib2 2026-05-07 03:59 1.4M
20260507T00Z_MSC_GDPS_WindDir_IsbL-0650_LatLon0.15_PT003H.grib2 2026-05-07 03:59 1.5M
20260507T00Z_MSC_GDPS_WindDir_IsbL-0700_LatLon0.15_PT003H.grib2 2026-05-07 03:59 1.6M
20260507T00Z_MSC_GDPS_WindDir_IsbL-0750_LatLon0.15_PT003H.grib2 2026-05-07 03:59 1.7M
20260507T00Z_MSC_GDPS_WindDir_IsbL-0800_LatLon0.15_PT003H.grib2 2026-05-07 03:59 1.8M
20260507T00Z_MSC_GDPS_WindDir_IsbL-0850_LatLon0.15_PT003H.grib2 2026-05-07 03:59 1.9M
20260507T00Z_MSC_GDPS_WindDir_IsbL-0875_LatLon0.15_PT003H.grib2 2026-05-07 03:59 1.9M
20260507T00Z_MSC_GDPS_WindDir_IsbL-0900_LatLon0.15_PT003H.grib2 2026-05-07 03:59 1.9M
20260507T00Z_MSC_GDPS_WindDir_IsbL-0925_LatLon0.15_PT003H.grib2 2026-05-07 03:59 1.9M
20260507T00Z_MSC_GDPS_WindDir_IsbL-0950_LatLon0.15_PT003H.grib2 2026-05-07 03:59 1.9M
20260507T00Z_MSC_GDPS_WindDir_IsbL-0970_LatLon0.15_PT003H.grib2 2026-05-07 03:59 2.0M
20260507T00Z_MSC_GDPS_WindDir_IsbL-0985_LatLon0.15_PT003H.grib2 2026-05-07 03:59 2.0M
20260507T00Z_MSC_GDPS_WindDir_IsbL-1000_LatLon0.15_PT003H.grib2 2026-05-07 03:59 2.0M
20260507T00Z_MSC_GDPS_WindDir_IsbL-1015_LatLon0.15_PT003H.grib2 2026-05-07 03:59 2.0M
20260507T00Z_MSC_GDPS_WindGust-Max_AGL-10m_LatLon0.15_PT003H.grib2 2026-05-07 03:59 2.2M
20260507T00Z_MSC_GDPS_WindGust-Min_AGL-10m_LatLon0.15_PT003H.grib2 2026-05-07 03:59 2.2M
20260507T00Z_MSC_GDPS_WindGust_AGL-10m_LatLon0.15_PT003H.grib2 2026-05-07 03:59 2.1M
20260507T00Z_MSC_GDPS_WindSpeed_AGL-10m_LatLon0.15_PT003H.grib2 2026-05-07 03:59 1.1M
20260507T00Z_MSC_GDPS_WindSpeed_AGL-120m_LatLon0.15_PT003H.grib2 2026-05-07 03:59 1.2M
20260507T00Z_MSC_GDPS_WindSpeed_AGL-40m_LatLon0.15_PT003H.grib2 2026-05-07 03:59 1.2M
20260507T00Z_MSC_GDPS_WindSpeed_AGL-80m_LatLon0.15_PT003H.grib2 2026-05-07 03:59 1.2M
20260507T00Z_MSC_GDPS_WindSpeed_IsbL-0001_LatLon0.15_PT003H.grib2 2026-05-07 03:59 658K
20260507T00Z_MSC_GDPS_WindSpeed_IsbL-0005_LatLon0.15_PT003H.grib2 2026-05-07 03:59 708K
20260507T00Z_MSC_GDPS_WindSpeed_IsbL-0010_LatLon0.15_PT003H.grib2 2026-05-07 03:59 642K
20260507T00Z_MSC_GDPS_WindSpeed_IsbL-0020_LatLon0.15_PT003H.grib2 2026-05-07 03:59 677K
20260507T00Z_MSC_GDPS_WindSpeed_IsbL-0030_LatLon0.15_PT003H.grib2 2026-05-07 03:59 878K
20260507T00Z_MSC_GDPS_WindSpeed_IsbL-0050_LatLon0.15_PT003H.grib2 2026-05-07 03:59 910K
20260507T00Z_MSC_GDPS_WindSpeed_IsbL-0100_LatLon0.15_PT003H.grib2 2026-05-07 03:59 1.1M
20260507T00Z_MSC_GDPS_WindSpeed_IsbL-0150_LatLon0.15_PT003H.grib2 2026-05-07 03:59 1.0M
20260507T00Z_MSC_GDPS_WindSpeed_IsbL-0175_LatLon0.15_PT003H.grib2 2026-05-07 03:59 1.0M
20260507T00Z_MSC_GDPS_WindSpeed_IsbL-0200_LatLon0.15_PT003H.grib2 2026-05-07 03:59 1.1M
20260507T00Z_MSC_GDPS_WindSpeed_IsbL-0225_LatLon0.15_PT003H.grib2 2026-05-07 03:59 1.1M
20260507T00Z_MSC_GDPS_WindSpeed_IsbL-0250_LatLon0.15_PT003H.grib2 2026-05-07 03:59 1.1M
20260507T00Z_MSC_GDPS_WindSpeed_IsbL-0275_LatLon0.15_PT003H.grib2 2026-05-07 03:59 1.1M
20260507T00Z_MSC_GDPS_WindSpeed_IsbL-0300_LatLon0.15_PT003H.grib2 2026-05-07 03:59 1.1M
20260507T00Z_MSC_GDPS_WindSpeed_IsbL-0350_LatLon0.15_PT003H.grib2 2026-05-07 03:59 1.1M
20260507T00Z_MSC_GDPS_WindSpeed_IsbL-0400_LatLon0.15_PT003H.grib2 2026-05-07 03:59 1.1M
20260507T00Z_MSC_GDPS_WindSpeed_IsbL-0450_LatLon0.15_PT003H.grib2 2026-05-07 03:59 1.1M
20260507T00Z_MSC_GDPS_WindSpeed_IsbL-0500_LatLon0.15_PT003H.grib2 2026-05-07 03:59 1.1M
20260507T00Z_MSC_GDPS_WindSpeed_IsbL-0550_LatLon0.15_PT003H.grib2 2026-05-07 03:59 1.1M
20260507T00Z_MSC_GDPS_WindSpeed_IsbL-0600_LatLon0.15_PT003H.grib2 2026-05-07 03:59 1.1M
20260507T00Z_MSC_GDPS_WindSpeed_IsbL-0650_LatLon0.15_PT003H.grib2 2026-05-07 03:59 1.2M
20260507T00Z_MSC_GDPS_WindSpeed_IsbL-0700_LatLon0.15_PT003H.grib2 2026-05-07 03:59 1.2M
20260507T00Z_MSC_GDPS_WindSpeed_IsbL-0750_LatLon0.15_PT003H.grib2 2026-05-07 03:59 1.6M
20260507T00Z_MSC_GDPS_WindSpeed_IsbL-0800_LatLon0.15_PT003H.grib2 2026-05-07 03:59 1.7M
20260507T00Z_MSC_GDPS_WindSpeed_IsbL-0850_LatLon0.15_PT003H.grib2 2026-05-07 03:59 1.7M
20260507T00Z_MSC_GDPS_WindSpeed_IsbL-0875_LatLon0.15_PT003H.grib2 2026-05-07 03:59 1.8M
20260507T00Z_MSC_GDPS_WindSpeed_IsbL-0900_LatLon0.15_PT003H.grib2 2026-05-07 03:59 1.8M
20260507T00Z_MSC_GDPS_WindSpeed_IsbL-0925_LatLon0.15_PT003H.grib2 2026-05-07 03:59 1.8M
20260507T00Z_MSC_GDPS_WindSpeed_IsbL-0950_LatLon0.15_PT003H.grib2 2026-05-07 03:59 1.9M
20260507T00Z_MSC_GDPS_WindSpeed_IsbL-0970_LatLon0.15_PT003H.grib2 2026-05-07 03:59 1.9M
20260507T00Z_MSC_GDPS_WindSpeed_IsbL-0985_LatLon0.15_PT003H.grib2 2026-05-07 03:59 1.8M
20260507T00Z_MSC_GDPS_WindSpeed_IsbL-1000_LatLon0.15_PT003H.grib2 2026-05-07 03:59 1.8M
20260507T00Z_MSC_GDPS_WindSpeed_IsbL-1015_LatLon0.15_PT003H.grib2 2026-05-07 03:59 1.8M
20260507T00Z_MSC_GDPS_WindU_AGL-10m_LatLon0.15_PT003H.grib2 2026-05-07 03:59 1.3M
20260507T00Z_MSC_GDPS_WindU_AGL-120m_LatLon0.15_PT003H.grib2 2026-05-07 03:59 1.0M
20260507T00Z_MSC_GDPS_WindU_AGL-40m_LatLon0.15_PT003H.grib2 2026-05-07 03:59 956K
20260507T00Z_MSC_GDPS_WindU_AGL-80m_LatLon0.15_PT003H.grib2 2026-05-07 03:59 962K
20260507T00Z_MSC_GDPS_WindU_IsbL-0001_LatLon0.15_PT003H.grib2 2026-05-07 03:59 512K
20260507T00Z_MSC_GDPS_WindU_IsbL-0005_LatLon0.15_PT003H.grib2 2026-05-07 03:59 709K
20260507T00Z_MSC_GDPS_WindU_IsbL-0010_LatLon0.15_PT003H.grib2 2026-05-07 03:59 717K
20260507T00Z_MSC_GDPS_WindU_IsbL-0020_LatLon0.15_PT003H.grib2 2026-05-07 03:59 743K
20260507T00Z_MSC_GDPS_WindU_IsbL-0030_LatLon0.15_PT003H.grib2 2026-05-07 03:59 754K
20260507T00Z_MSC_GDPS_WindU_IsbL-0050_LatLon0.15_PT003H.grib2 2026-05-07 03:59 776K
20260507T00Z_MSC_GDPS_WindU_IsbL-0100_LatLon0.15_PT003H.grib2 2026-05-07 03:59 858K
20260507T00Z_MSC_GDPS_WindU_IsbL-0150_LatLon0.15_PT003H.grib2 2026-05-07 03:59 1.0M
20260507T00Z_MSC_GDPS_WindU_IsbL-0175_LatLon0.15_PT003H.grib2 2026-05-07 03:59 1.0M
20260507T00Z_MSC_GDPS_WindU_IsbL-0200_LatLon0.15_PT003H.grib2 2026-05-07 03:59 839K
20260507T00Z_MSC_GDPS_WindU_IsbL-0225_LatLon0.15_PT003H.grib2 2026-05-07 03:59 848K
20260507T00Z_MSC_GDPS_WindU_IsbL-0250_LatLon0.15_PT003H.grib2 2026-05-07 03:59 850K
20260507T00Z_MSC_GDPS_WindU_IsbL-0275_LatLon0.15_PT003H.grib2 2026-05-07 03:59 934K
20260507T00Z_MSC_GDPS_WindU_IsbL-0300_LatLon0.15_PT003H.grib2 2026-05-07 03:59 870K
20260507T00Z_MSC_GDPS_WindU_IsbL-0350_LatLon0.15_PT003H.grib2 2026-05-07 03:59 889K
20260507T00Z_MSC_GDPS_WindU_IsbL-0400_LatLon0.15_PT003H.grib2 2026-05-07 03:59 894K
20260507T00Z_MSC_GDPS_WindU_IsbL-0450_LatLon0.15_PT003H.grib2 2026-05-07 03:59 898K
20260507T00Z_MSC_GDPS_WindU_IsbL-0500_LatLon0.15_PT003H.grib2 2026-05-07 03:59 1.1M
20260507T00Z_MSC_GDPS_WindU_IsbL-0550_LatLon0.15_PT003H.grib2 2026-05-07 03:59 1.1M
20260507T00Z_MSC_GDPS_WindU_IsbL-0600_LatLon0.15_PT003H.grib2 2026-05-07 03:59 1.2M
20260507T00Z_MSC_GDPS_WindU_IsbL-0650_LatLon0.15_PT003H.grib2 2026-05-07 03:59 1.2M
20260507T00Z_MSC_GDPS_WindU_IsbL-0700_LatLon0.15_PT003H.grib2 2026-05-07 03:59 1.2M
20260507T00Z_MSC_GDPS_WindU_IsbL-0750_LatLon0.15_PT003H.grib2 2026-05-07 03:59 1.3M
20260507T00Z_MSC_GDPS_WindU_IsbL-0800_LatLon0.15_PT003H.grib2 2026-05-07 03:59 1.4M
20260507T00Z_MSC_GDPS_WindU_IsbL-0850_LatLon0.15_PT003H.grib2 2026-05-07 03:59 1.4M
20260507T00Z_MSC_GDPS_WindU_IsbL-0875_LatLon0.15_PT003H.grib2 2026-05-07 03:59 1.4M
20260507T00Z_MSC_GDPS_WindU_IsbL-0900_LatLon0.15_PT003H.grib2 2026-05-07 03:59 1.5M
20260507T00Z_MSC_GDPS_WindU_IsbL-0925_LatLon0.15_PT003H.grib2 2026-05-07 03:59 1.5M
20260507T00Z_MSC_GDPS_WindU_IsbL-0950_LatLon0.15_PT003H.grib2 2026-05-07 03:59 1.4M
20260507T00Z_MSC_GDPS_WindU_IsbL-0970_LatLon0.15_PT003H.grib2 2026-05-07 03:59 1.4M
20260507T00Z_MSC_GDPS_WindU_IsbL-0985_LatLon0.15_PT003H.grib2 2026-05-07 03:59 1.4M
20260507T00Z_MSC_GDPS_WindU_IsbL-1000_LatLon0.15_PT003H.grib2 2026-05-07 03:59 1.4M
20260507T00Z_MSC_GDPS_WindU_IsbL-1015_LatLon0.15_PT003H.grib2 2026-05-07 03:59 1.3M
20260507T00Z_MSC_GDPS_WindV_AGL-10m_LatLon0.15_PT003H.grib2 2026-05-07 03:59 1.3M
20260507T00Z_MSC_GDPS_WindV_AGL-120m_LatLon0.15_PT003H.grib2 2026-05-07 03:59 1.0M
20260507T00Z_MSC_GDPS_WindV_AGL-40m_LatLon0.15_PT003H.grib2 2026-05-07 03:59 954K
20260507T00Z_MSC_GDPS_WindV_AGL-80m_LatLon0.15_PT003H.grib2 2026-05-07 03:59 960K
20260507T00Z_MSC_GDPS_WindV_IsbL-0001_LatLon0.15_PT003H.grib2 2026-05-07 03:59 729K
20260507T00Z_MSC_GDPS_WindV_IsbL-0005_LatLon0.15_PT003H.grib2 2026-05-07 03:59 874K
20260507T00Z_MSC_GDPS_WindV_IsbL-0010_LatLon0.15_PT003H.grib2 2026-05-07 03:59 898K
20260507T00Z_MSC_GDPS_WindV_IsbL-0020_LatLon0.15_PT003H.grib2 2026-05-07 03:59 858K
20260507T00Z_MSC_GDPS_WindV_IsbL-0030_LatLon0.15_PT003H.grib2 2026-05-07 03:59 866K
20260507T00Z_MSC_GDPS_WindV_IsbL-0050_LatLon0.15_PT003H.grib2 2026-05-07 03:59 1.0M
20260507T00Z_MSC_GDPS_WindV_IsbL-0100_LatLon0.15_PT003H.grib2 2026-05-07 03:59 1.0M
20260507T00Z_MSC_GDPS_WindV_IsbL-0150_LatLon0.15_PT003H.grib2 2026-05-07 03:59 1.0M
20260507T00Z_MSC_GDPS_WindV_IsbL-0175_LatLon0.15_PT003H.grib2 2026-05-07 03:59 805K
20260507T00Z_MSC_GDPS_WindV_IsbL-0200_LatLon0.15_PT003H.grib2 2026-05-07 03:59 893K
20260507T00Z_MSC_GDPS_WindV_IsbL-0225_LatLon0.15_PT003H.grib2 2026-05-07 03:59 902K
20260507T00Z_MSC_GDPS_WindV_IsbL-0250_LatLon0.15_PT003H.grib2 2026-05-07 03:59 903K
20260507T00Z_MSC_GDPS_WindV_IsbL-0275_LatLon0.15_PT003H.grib2 2026-05-07 03:59 928K
20260507T00Z_MSC_GDPS_WindV_IsbL-0300_LatLon0.15_PT003H.grib2 2026-05-07 03:59 923K
20260507T00Z_MSC_GDPS_WindV_IsbL-0350_LatLon0.15_PT003H.grib2 2026-05-07 03:59 939K
20260507T00Z_MSC_GDPS_WindV_IsbL-0400_LatLon0.15_PT003H.grib2 2026-05-07 03:59 885K
20260507T00Z_MSC_GDPS_WindV_IsbL-0450_LatLon0.15_PT003H.grib2 2026-05-07 03:59 889K
20260507T00Z_MSC_GDPS_WindV_IsbL-0500_LatLon0.15_PT003H.grib2 2026-05-07 03:59 1.1M
20260507T00Z_MSC_GDPS_WindV_IsbL-0550_LatLon0.15_PT003H.grib2 2026-05-07 03:59 1.1M
20260507T00Z_MSC_GDPS_WindV_IsbL-0600_LatLon0.15_PT003H.grib2 2026-05-07 03:59 1.1M
20260507T00Z_MSC_GDPS_WindV_IsbL-0650_LatLon0.15_PT003H.grib2 2026-05-07 03:59 1.2M
20260507T00Z_MSC_GDPS_WindV_IsbL-0700_LatLon0.15_PT003H.grib2 2026-05-07 03:59 1.2M
20260507T00Z_MSC_GDPS_WindV_IsbL-0750_LatLon0.15_PT003H.grib2 2026-05-07 03:59 1.3M
20260507T00Z_MSC_GDPS_WindV_IsbL-0800_LatLon0.15_PT003H.grib2 2026-05-07 03:59 1.3M
20260507T00Z_MSC_GDPS_WindV_IsbL-0850_LatLon0.15_PT003H.grib2 2026-05-07 03:59 1.4M
20260507T00Z_MSC_GDPS_WindV_IsbL-0875_LatLon0.15_PT003H.grib2 2026-05-07 03:59 1.4M
20260507T00Z_MSC_GDPS_WindV_IsbL-0900_LatLon0.15_PT003H.grib2 2026-05-07 03:59 1.4M
20260507T00Z_MSC_GDPS_WindV_IsbL-0925_LatLon0.15_PT003H.grib2 2026-05-07 03:59 1.4M
20260507T00Z_MSC_GDPS_WindV_IsbL-0950_LatLon0.15_PT003H.grib2 2026-05-07 03:59 1.4M
20260507T00Z_MSC_GDPS_WindV_IsbL-0970_LatLon0.15_PT003H.grib2 2026-05-07 03:59 1.4M
20260507T00Z_MSC_GDPS_WindV_IsbL-0985_LatLon0.15_PT003H.grib2 2026-05-07 03:59 1.4M
20260507T00Z_MSC_GDPS_WindV_IsbL-1000_LatLon0.15_PT003H.grib2 2026-05-07 03:59 1.4M
20260507T00Z_MSC_GDPS_WindV_IsbL-1015_LatLon0.15_PT003H.grib2 2026-05-07 03:59 1.3M